Regional Weather Roundup
Issued by NWS

Home | Current Version | Previous Version | Text Only | Print | Product List | Glossary On
Versions: 1 2 3 4 5 6 7 8 9 10 11 12 13 14 15 16 17 18 19 20 21 22 23 24 25 26 27 28 29 30 31 32 33 34 35 36 37 38 39 40 41 42 43 44 45 46 47 48 49 50
282
ASUS43 KIND 202009
RWRIN

WEATHER ROUNDUP FOR INDIANA
NATIONAL WEATHER SERVICE INDIANAPOLIS IN
400 PM EDT THU JUL 20 2017

NOTE: "FAIR" INDICATES FEW OR NO CLOUDS BELOW 12,000 FEET WITH NO
SIGNIFICANT WEATHER AND/OR OBSTRUCTIONS TO VISIBILITY.

* - STATION DOES NOT REPORT WEATHER SUCH AS PRECIPITATION OR FOG.

+ - STATION NOT QUALITY CONTROLLED BY THE NATIONAL WEATHER SERVICE.
    USE DATA WITH CAUTION...ESPECIALLY DEWPOINT AND RELATIVE
    HUMIDITY OBSERVATIONS.

INZ001>003-010>013-019-020-202100-
NORTHWEST INDIANA

CITY           SKY/WX    TMP DP  RH WIND       PRES   REMARKS
GARY /AIRPORT/ MOSUNNY   90  73  58 W12G28    29.95S HX  98
KNOX *+        SUNNY     86  64  48 W8        29.95S
LA PORTE +     MOSUNNY   87  74  66 W8        29.97R HX  95
MICHIGAN CITY+ SUNNY     86  73  66 NW6G17    29.97R
MONTICELLO +   CLOUDY    87  75  67 SW10G16   29.97S HX  97
RENSSELAER +   MOSUNNY   88  73  62 SW16      29.96S HX  96
VALPARAISO     MOSUNNY   90  76  63 W14       29.96S HX 101

$$

LMZ046-743>745-202100-
SOUTHERN LAKE MICHIGAN

STATION/POSITION TIME  TEMP    WIND        PRES    WAVE
                       AIR SEA DIR/SP/G            HT
                 (UTC) (F)     (DEG/KT/KT) (MB)    (FT)
BURNS HARBOR     1940   81     280/ 10/ 12 1014.6S
MICHIGAN CITY    1940   80     340/  5/  6   N/A
5NW MICH CITY    2000   77 76   30/  6/ 14   N/A     1

$$

INZ004-005-014>016-021>024-202100-
NORTH CENTRAL INDIANA

CITY           SKY/WX    TMP DP  RH WIND       PRES   REMARKS
ELKHART        MOSUNNY   86  72  62 W12       29.98S
LOGANSPORT +   MOSUNNY   86  75  70 SW12      29.98S HX  95
PERU/GRISSOM   MOSUNNY   87  75  67 SW13      29.97S HX  96
ROCHESTER +    MOSUNNY   90  73  58 W9G16     29.98S HX  98
SOUTH BEND     MOSUNNY   87  74  64 W12       29.97S HX  95
WARSAW +       MOSUNNY   84  72  65 SW5       29.98S

$$

INZ006>009-017-018-025>027-202100-
NORTHEAST INDIANA

CITY           SKY/WX    TMP DP  RH WIND       PRES   REMARKS
ANGOLA *+      CLOUDY    84  79  84 VRB3      29.99F HX  96
AUBURN +       MOSUNNY   82  68  61 CALM      30.00S
FORT WAYNE     PTSUNNY   84  72  67 W8        29.99F
HUNTINGTON +   MOSUNNY   82  73  72 SW5       29.99S
KENDALLVILLE + MOSUNNY  N/A N/A N/A W7        30.00F

$$

INZ028-029-035-036-043>045-051>053-202100-
WEST CENTRAL INDIANA

CITY           SKY/WX    TMP DP  RH WIND       PRES   REMARKS
GREENCASTLE +  MOSUNNY   84  75  74 CALM      30.02F
LAFAYETTE      CLOUDY    86  76  71 SW13      29.97F HX  96
TERRE HAUTE    PTSUNNY   91  77  63 SW9       30.00F HX 104

$$

INZ030>032-037>040-046>048-054>057-064-065-202100-
CENTRAL INDIANA

CITY           SKY/WX    TMP DP  RH WIND       PRES   REMARKS
ANDERSON       SUNNY     88  70  55 MISG      30.01F
CP ATTERBURY + MOSUNNY   88  73  62 SW8       30.02F HX  96
COLUMBUS       SUNNY     90  72  55 SW9       30.02F HX  96
FISHERS *+     CLOUDY    88  77  70 SW7       30.00  HX 100
FRANKFORT +    MOSUNNY   88  76  68 SW8       30.01F HX  99
GREENWOOD *+   MOSUNNY   87  71  60 SW9       30.02F
INDIANAPOLIS   PTSUNNY   88  74  63 SW13      30.00F HX  96
-EAGLE CREEK   MOSUNNY   87  72  60 VRB6      30.00F
KOKOMO +       MOSUNNY   88  74  63 W17G23    29.99S HX  96
MARION +       SUNNY     86  72  62 SW8       29.99F
MT COMFORT *+  PTSUNNY   88  73  62 SW14      30.01F HX  96
SHELBYVILLE    PTSUNNY   88  74  63 SW14      30.00F HX  96
ZIONSVILLE +   MOSUNNY   86  74  68 SW10      30.01F

$$

INZ033-034-041-042-049-050-058-059-202100-
EAST CENTRAL INDIANA

CITY           SKY/WX    TMP DP  RH WIND       PRES   REMARKS
MUNCIE         MOSUNNY   88  70  55 W10       30.00F
RICHMOND +     CLOUDY    81  77  89 SW9       30.05S

$$

INZ060-061-067>069-081>083-085>088-202100-
SOUTHWEST INDIANA

CITY           SKY/WX    TMP DP  RH WIND       PRES   REMARKS
EVANSVILLE     PTSUNNY   96  68  39 SW8       30.04F HX 101
HUNTINGBURG *+ MOSUNNY   90  76  63 SW7       30.04F HX 101

$$

INZ062-063-066-070>080-084-089>092-202100-
SOUTH CENTRAL AND SOUTHEAST INDIANA

CITY           SKY/WX    TMP DP  RH WIND       PRES   REMARKS
BEDFORD +      CLOUDY    91  68  46 SW8       30.03F HX  95
BLOOMINGTON    PTSUNNY   90  72  55 W9        30.03F HX  97
MADISON *+     MOSUNNY   91  70  49 SW8       30.07S HX  97
NORTH VERNON + MOSUNNY   86  72  62 SW12      30.04F

$$





USA.gov is the U.S. government's official web portal to all federal, state and local government web resources and services.